User: anonymous   Login
Location: NJAA Observatory
(40.6819°N, 74.8979°W)
Time: 03:11:27
(UTC-04:00)
Language:

S-56A Canister/Altair - Orbit

View from above orbital plane
View from above orbital plane
View from above satellite
View from above satellite

Ground track
Ground track

The orbit data is extracted from the following two-line orbital elements,

1 00082U 61004B   15142.45974707  .00000094  00000-0  11892-3 0  9994
2 00082 038.8533 216.8794 1172264 143.3845 225.3041 12.25699493580404
Epoch (UTC): 22 May 2015 11:02:02
Eccentricity: 0.1172264
inclination: 38.8533°
perigee height: 636 km
apogee height: 2499 km
right ascension of ascending node: 216.8794°
argument of perigee: 143.3845°
revolutions per day: 12.25699493
mean anomaly at epoch: 225.3041°
orbit number at epoch: 58040

The dashed part of the orbit path shows where the satellite is in the earth's shadow,  

DLR